User: anonymous   Login
Location: Normandy Village
(37.8755°N, 122.2655°W)
Time: 01:43:31
(UTC+00:00)
Language:

Shenzhou-11 Module - Orbit

View from above orbital plane
View from above orbital plane
View from above satellite
View from above satellite

Ground track
Ground track

The orbit data is extracted from the following two-line orbital elements,

1 41868U 16061G   20280.09605367 +.05817383 +92395-5 +21431-3 0  9991
2 41868 042.7730 152.8530 0009505 273.5415 086.4563 16.43610672223872
Epoch (UTC): 06 October 2020 02:18:19
Eccentricity: 0.0009505
inclination: 42.7730°
perigee height: 150 km
apogee height: 162 km
right ascension of ascending node: 152.8530°
argument of perigee: 273.5415°
revolutions per day: 16.43610672
mean anomaly at epoch: 86.4563°
orbit number at epoch: 22387

The dashed part of the orbit path shows where the satellite is in the earth's shadow,  

DLR